EHI
0 0 0 0 0 0 0 0 0 0 0 2 5 7 8 12 16 19 26 39 51 58 59 58 58 60 62 63 60 55 53 53 53 52 50 51 55 58 57 47 37 36 36 33
0 0 0 0 0 0 0 0 0 1 3 5 7 8 12 14 15 20 29 41 51 56 57 57 57 58 61 63 62 58 54 53 53 52 49 46 49 52 51 44 36 35 33 31
0 0 0 0 0 0 1 2 3 4 7 11 12 14 17 18 19 26 37 45 51 54 55 56 57 58 59 60 62 61 56 52 51 50 46 41 41 44 44 39 37 36 34 31
0 0 0 1 1 1 3 7 8 9 12 15 16 17 18 20 26 33 41 48 52 52 52 54 57 58 56 56 59 59 54 50 48 45 41 38 37 38 37 35 36 38 35 32
0 0 1 3 4 4 7 11 13 13 15 15 14 14 16 21 29 35 40 47 49 47 46 51 55 56 54 53 54 54 50 47 45 41 37 34 33 33 33 33 35 34 30 27
0 0 2 6 9 7 8 12 15 17 17 15 11 12 19 29 35 38 40 44 45 44 46 50 53 54 53 52 52 51 48 44 42 39 36 33 32 32 33 34 34 30 23 20
0 0 3 7 9 9 12 16 18 19 20 19 16 19 28 38 43 44 43 42 44 47 50 50 50 52 53 52 50 48 46 42 40 40 38 36 36 36 35 33 31 25 19 16
1 3 7 12 13 16 22 26 24 22 23 23 22 24 32 41 46 46 45 43 44 48 50 49 49 52 53 51 48 45 43 40 39 38 36 36 38 38 36 32 26 20 15 13
4 7 13 18 21 24 27 28 27 25 25 23 23 25 31 38 42 43 43 43 44 45 44 45 47 49 50 49 46 43 41 38 35 31 29 30 32 31 29 27 21 14 11 11
8 12 17 20 23 26 25 23 23 23 22 20 22 27 32 36 38 39 40 42 43 42 42 43 44 44 45 46 45 41 37 33 28 23 22 23 22 18 17 15 13 10 9 9
10 12 15 17 21 25 24 19 16 15 15 17 21 27 32 34 36 37 39 41 42 42 43 43 41 40 41 43 42 36 30 26 23 20 19 17 13 9 8 7 6 7 7 7
11 11 10 14 20 26 25 18 13 12 14 16 22 27 30 33 34 35 36 39 39 38 38 37 36 35 36 38 37 31 25 22 20 19 18 14 9 6 4 3 2 3 3 3
10 10 9 12 19 22 20 15 13 14 16 20 25 28 29 29 29 29 30 30 28 26 26 28 30 30 30 30 29 27 23 19 17 17 16 13 9 6 4 2 1 0 0 0
6 7 8 10 14 15 13 11 12 14 16 20 23 25 25 24 24 23 23 20 18 16 18 21 23 25 24 23 22 22 20 17 15 14 13 12 10 8 6 4 2 0 0 0
2 3 4 6 8 9 9 10 12 13 13 15 17 19 20 20 20 20 18 14 12 13 14 15 16 18 19 18 17 16 15 14 13 11 9 8 8 7 6 4 2 1 0 0
1 1 2 3 5 6 8 9 10 11 11 11 11 13 16 18 18 18 16 12 11 12 12 12 12 12 13 13 11 10 8 7 7 7 5 4 5 5 6 5 4 2 1 0
2 2 2 3 4 5 6 7 8 9 9 10 10 11 12 14 15 14 13 12 11 11 11 11 11 10 10 9 7 5 3 2 2 3 2 2 3 5 6 5 4 2 1 0
2 2 1 2 3 4 5 6 6 7 8 9 9 9 9 10 10 10 10 10 10 10 10 10 10 10 10 7 6 5 4 3 2 2 2 2 3 3 4 3 2 1 1 0
1 1 0 1 2 3 4 4 4 4 5 6 7 7 7 7 7 7 7 7 7 7 8 8 8 9 9 7 6 6 5 4 3 3 3 2 1 1 2 1 1 1 1 1
0 0 0 0 1 2 3 3 3 3 3 4 5 6 6 6 6 6 6 6 6 6 6 6 7 7 7 4 4 5 5 3 2 2 3 2 1 1 2 2 1 1 1 0
0 0 0 0 0 1 3 3 3 3 3 3 4 4 5 6 6 6 6 6 5 5 5 5 5 6 5 3 2 3 4 3 3 3 3 3 3 2 3 4 3 1 0 0
0 0 1 0 0 1 3 3 3 3 3 3 3 3 4 4 4 4 4 4 3 3 4 4 4 3 3 3 3 3 3 3 3 3 3 3 3 3 4 4 3 1 0 0
0 0 0 0 0 1 2 3 3 3 3 3 3 3 3 3 2 2 2 2 2 1 2 2 1 1 1 3 3 3 3 3 3 2 2 2 2 2 2 2 2 1 0 0
0 0 0 0 0 1 1 2 2 2 2 2 2 2 2 1 1 0 1 1 1 0 1 1 0 0 1 2 2 2 2 2 1 1 1 1 1 1 1 1 1 1 0 0
0 0 0 0 0 0 0 1 1 1 1 1 1 1 1 0 0 0 0 0 0 0 0 0 0 0 0 1 1 1 1 1 0 0 0 0 0 0 0 0 1 1 0 0
0 0 0 0 0 0 0 0 0 0 0 0 0 0 0 0 0 0 0 0 0 0 0 0 0 0 0 0 0 0 0 0 0 0 0 0 0 0 0 0 0 0 0 0
0 0 0 0 0 0 0 0 0 0 0 0 0 0 0 0 0 0 0 0 0 0 0 0 0 0 0 0 0 0 0 0 0 0 0 0 0 0 0 0 0 0 0 0
Wind_Speed
14 12 12 14 17 19 17 15 12 8 11 10 6 6 8 7 7 6 6 5 7 6 5 5 5 5 6 6 7 7 8 8 8 8 8 8 8 7 7 7 8 6 6 7
14 14 13 14 16 17 17 17 13 9 6 7 6 4 6 7 7 7 6 5 7 7 6 5 4 5 5 5 6 6 7 7 7 7 7 7 7 7 7 6 6 6 6 7
11 13 12 15 17 17 15 14 12 10 5 6 7 6 6 6 6 6 6 6 6 5 5 4 4 4 5 5 5 5 6 6 6 6 7 7 8 7 7 6 6 6 6 6
10 10 14 11 12 13 13 10 8 6 6 6 5 5 6 6 6 6 5 6 5 4 4 4 5 5 5 5 5 5 5 5 6 7 6 6 6 6 6 5 5 5 5 5
8 9 11 10 9 10 9 7 6 5 4 5 5 5 5 6 7 6 6 6 5 4 4 4 5 5 5 5 5 5 5 5 5 6 6 6 5 5 5 5 5 5 4 4
9 9 10 7 4 5 6 6 4 6 5 6 6 4 5 5 7 8 7 6 5 5 5 4 4 5 5 5 5 5 5 5 4 5 5 6 5 5 4 4 4 4 4 4
12 10 7 4 3 6 8 4 2 4 5 5 3 3 6 7 8 8 7 6 5 5 5 4 4 5 5 4 4 4 4 4 4 4 4 4 4 3 4 4 4 3 3 3
10 10 6 5 2 1 2 3 3 4 5 6 7 7 8 9 8 7 6 7 6 5 5 4 4 4 4 4 3 4 4 5 5 4 4 4 4 4 4 4 4 3 3 2
3 2 2 5 4 3 3 4 4 5 6 7 8 7 7 9 7 6 6 6 5 6 5 4 4 4 5 4 3 4 5 5 5 4 3 3 3 3 3 3 3 3 3 3
2 3 1 2 4 4 4 5 6 6 6 6 7 7 8 9 7 7 6 6 6 6 5 5 5 4 4 4 4 5 5 5 4 4 4 3 2 2 1 1 2 2 2 2
2 1 0 1 3 3 5 7 7 6 7 8 8 8 9 8 7 7 7 6 6 6 6 6 6 5 4 4 4 5 5 5 4 4 4 4 5 4 3 3 2 0 0 1
1 1 1 1 3 3 5 6 7 7 8 8 9 9 9 8 7 7 7 6 6 7 6 6 6 6 5 5 4 5 4 4 3 4 4 4 5 6 9 8 10 11 8 6
1 2 2 2 3 4 7 8 8 9 9 9 10 10 10 8 7 8 8 7 7 7 6 6 6 6 6 5 5 5 4 3 3 3 4 4 4 5 5 6 11 13 13 12
3 2 2 2 3 5 8 9 10 10 10 10 10 10 10 10 9 9 8 7 7 7 7 7 7 7 5 5 5 5 5 5 4 3 3 4 4 4 4 5 6 6 8 11
2 3 2 3 5 7 7 8 10 10 10 11 10 10 11 11 10 9 9 9 9 9 9 8 8 7 5 6 6 6 5 4 4 4 5 5 5 5 5 6 6 6 6 7
4 4 4 6 7 7 8 9 9 9 9 11 11 11 11 11 10 10 10 9 10 10 8 8 8 7 6 6 6 6 6 7 6 5 6 6 5 6 6 6 6 6 6 6
5 5 6 6 6 7 8 8 8 9 10 11 11 12 12 11 11 11 10 10 10 9 8 8 7 6 6 6 6 6 6 6 7 6 6 6 6 7 7 7 7 7 7 7
5 6 6 6 6 7 9 9 9 10 10 11 11 11 11 11 11 10 9 9 10 10 8 7 6 6 6 7 5 5 5 6 6 7 7 7 6 7 7 7 8 8 7 7
7 8 8 7 7 8 9 9 9 10 10 10 11 11 10 10 10 9 9 9 9 9 7 7 7 7 7 7 6 4 6 7 7 6 6 7 7 7 6 7 8 7 7 6
8 9 8 8 8 8 9 10 10 10 10 11 11 10 10 9 9 9 10 9 7 6 6 6 7 7 7 6 6 5 7 7 7 6 6 7 7 7 7 7 7 7 7 6
9 9 9 9 9 10 10 11 10 10 10 10 10 10 9 9 8 8 8 8 7 6 7 7 6 6 6 6 6 7 7 7 7 7 7 8 8 8 8 8 7 7 7 6
9 9 10 10 10 10 9 9 9 10 10 9 9 9 9 9 9 9 9 7 7 6 5 6 7 8 8 7 7 7 8 8 7 7 7 7 7 7 7 7 7 7 7 7
8 9 9 10 10 10 9 9 9 9 9 9 8 8 8 7 6 7 7 6 6 7 7 7 8 9 8 7 7 8 8 8 7 7 7 7 7 7 7 7 7 7 6 6
9 9 9 9 9 10 10 10 9 8 9 9 9 8 8 7 7 7 8 8 8 9 8 7 8 8 7 7 7 7 8 7 7 7 6 6 7 7 7 7 7 7 7 8
9 9 9 9 9 8 8 9 9 9 9 8 9 8 7 7 7 7 8 9 8 8 8 8 8 7 7 7 8 7 7 7 7 7 7 7 7 7 7 7 7 6 6 6
8 8 7 7 6 6 6 6 6 6 7 7 7 7 7 7 8 7 6 8 9 7 7 6 6 6 7 7 8 8 7 7 7 8 8 7 8 8 7 7 8 6 6 7
8 7 6 6 6 5 6 6 6 6 6 7 7 7 7 7 7 7 7 6 6 6 6 6 6 7 7 7 7 7 7 7 7 7 7 7 7 6 7 7 6 6 6 7
Wind_Direction
249 251 236 226 227 226 226 230 237 204 181 176 193 187 154 143 135 133 137 141 133 136 137 142 153 158 168 177 179 181 184 188 188 189 185 183 182 182 181 187 195 192 196 204
251 246 244 237 230 229 225 227 230 222 195 169 167 175 145 143 145 140 143 143 133 134 137 145 156 161 164 164 168 169 177 181 177 178 180 180 179 178 179 188 192 189 196 203
248 239 241 234 227 225 226 226 223 223 201 161 163 168 151 141 139 135 139 130 123 131 137 148 151 146 152 151 154 162 167 169 168 172 178 182 181 175 181 189 189 194 199 204
250 244 237 231 228 225 224 220 220 210 185 165 147 142 130 127 120 119 120 121 117 120 130 140 140 138 145 150 156 158 162 166 169 174 177 175 176 173 178 187 192 196 201 204
245 237 248 244 227 222 214 205 204 193 180 155 134 130 119 123 123 123 121 114 115 118 121 127 132 138 143 152 158 163 168 172 173 172 167 167 173 173 179 185 192 196 195 196
246 236 234 238 250 239 206 205 197 173 170 160 154 167 137 117 114 107 104 110 117 119 116 117 123 130 140 149 150 157 161 160 157 158 162 169 172 175 175 173 176 181 182 185
241 244 242 282 268 229 210 191 184 161 146 140 138 117 119 106 94 97 100 103 104 104 103 106 119 126 134 137 140 145 139 140 140 144 154 162 161 162 162 167 169 175 174 180
231 237 236 335 317 200 102 81 94 106 114 114 111 116 111 101 94 96 99 102 98 95 95 96 106 121 124 121 121 127 132 133 133 135 153 158 157 165 168 171 175 177 178 185
222 223 30 13 39 51 73 84 81 89 98 107 112 118 115 105 98 99 93 91 94 97 96 96 102 111 118 113 118 122 121 123 127 129 125 125 146 158 161 168 185 184 185 191
194 167 109 26 43 38 73 92 85 93 104 117 118 118 120 112 105 97 91 86 92 97 95 91 89 90 98 106 117 116 116 117 119 113 104 90 85 92 107 162 186 190 188 186
212 176 59 31 59 47 79 98 113 118 112 115 116 114 108 105 101 96 91 87 84 86 84 82 86 85 88 95 103 111 110 109 112 110 110 94 77 54 65 47 27 94 110 138
233 113 84 48 67 76 87 95 100 106 106 108 108 106 104 102 99 96 93 87 86 84 82 78 77 75 73 81 94 104 108 107 113 119 117 115 110 87 55 60 60 58 57 71
54 34 53 60 77 89 93 95 96 95 100 101 98 99 98 96 96 95 91 88 85 85 84 82 79 72 69 76 86 89 93 100 106 112 116 121 122 118 106 75 63 60 57 62
69 68 72 61 85 92 91 94 97 97 97 97 98 97 97 93 89 86 83 83 84 83 81 81 80 72 68 77 82 87 91 90 91 93 103 105 104 106 105 104 95 76 62 62
76 80 93 92 104 98 97 100 100 99 100 98 95 95 96 92 88 85 81 81 81 76 73 74 72 66 60 74 80 80 79 82 87 85 90 93 94 93 91 90 91 93 88 69
112 117 107 103 103 104 103 102 100 99 103 103 100 96 93 90 86 83 78 78 79 77 75 74 70 62 62 72 79 78 75 71 76 84 88 89 86 88 88 87 85 79 72 68
125 121 109 104 105 107 106 105 101 101 103 103 103 101 98 94 88 81 78 76 78 78 74 73 72 65 63 68 78 86 88 84 82 82 81 82 81 80 82 84 83 80 73 61
109 108 105 106 112 110 107 105 104 103 103 104 104 102 100 97 94 90 87 85 82 74 65 65 68 69 67 62 60 78 89 86 81 80 80 81 83 88 90 91 91 89 87 81
103 101 97 96 102 103 103 103 103 101 98 100 101 98 96 95 96 95 90 84 79 74 63 60 59 68 73 67 58 71 82 86 84 81 85 87 85 85 89 92 91 89 87 84
109 106 102 98 99 100 99 98 98 99 98 99 99 96 92 92 94 95 89 79 68 67 68 63 66 67 68 61 61 78 83 87 89 87 86 86 85 83 84 85 87 88 87 86
113 111 106 100 96 92 92 97 101 100 99 99 99 98 95 91 89 88 88 82 67 57 66 65 62 61 64 59 63 74 78 78 75 72 76 80 80 79 78 78 78 78 78 79
111 107 102 98 96 93 90 93 100 103 103 101 101 101 98 94 92 85 76 77 78 59 66 68 62 52 49 55 73 73 74 76 76 76 77 80 81 81 80 80 78 76 74 74
106 104 102 101 100 99 96 95 96 97 98 98 98 96 93 87 86 90 86 77 80 69 69 64 52 51 50 68 75 77 77 77 76 77 79 81 82 81 81 81 79 77 75 73
107 108 108 106 105 102 100 100 99 100 101 98 95 94 95 93 86 85 93 86 77 80 79 65 54 54 62 80 81 80 80 79 78 77 79 82 83 81 77 75 76 74 72 70
109 108 109 111 107 104 105 107 104 103 101 99 98 91 86 87 93 94 97 98 98 95 94 82 67 65 75 79 80 79 76 72 72 73 72 72 76 78 76 74 74 74 72 68
102 102 102 102 104 111 112 108 104 101 103 102 97 95 96 99 103 106 109 109 105 103 99 96 90 84 81 82 83 86 88 88 82 79 78 78 77 77 75 73 73 69 68 68
105 106 104 101 99 99 99 97 96 95 95 100 102 100 99 99 102 105 104 103 102 97 93 90 88 84 83 82 83 82 80 78 77 77 78 78 76 75 76 74 73 71 66 67